[Iaude] MPEC C79: 2024 CK1 [a=1.82,e=0.53,i=1.0,H=29.3]
    mpec at cfa.harvard.edu 
    mpec at cfa.harvard.edu
       
    Wed Feb  7 20:20:40 EST 2024
    
    
  
M.P.E.C. 2024-C79                              Issued 2024 February 8, 01:18 UT
     The Minor Planet Electronic Circulars contain information on unusual
         minor planets, routine data on comets and natural satellites,
         and occasional editorial announcements.  They are published
    on behalf of Division F of the International Astronomical Union by the
          Minor Planet Center, Smithsonian Astrophysical Observatory,
                          Cambridge, MA 02138, U.S.A.
			  
             Prepared using the Tamkin Foundation Computer Network
                              MPC at CFA.HARVARD.EDU
            URL https://www.minorplanetcenter.net/    ISSN 1523-6714
                                    2024 CK1                                    
Observations:
     K24C01K* C2024 02 06.87301 08 06 54.23 +25 47 25.5          20.0 GVEC079K88
     K24C01K  C2024 02 06.87376 08 06 54.43 +25 47 38.4          20.5 GVEC079K88
     K24C01K  C2024 02 06.87600 08 06 55.00 +25 48 20.2          20.4 GVEC079K88
     K24C01K  C2024 02 06.87824 08 06 55.54 +25 49 02.6          20.2 GVEC079K88
     K24C01K  C2024 02 06.87900 08 06 55.72 +25 49 16.1          20.1 GVEC079K88
     K24C01K KC2024 02 06.89261208 06 58.94 +25 53 29.3          20.0 RoEC079K88
     K24C01K KC2024 02 06.89533008 06 59.64 +25 54 20.9          20.4 RoEC079K88
     K24C01K KC2024 02 06.89804108 07 00.29 +25 55 11.5          20.1 RoEC079K88
     K24C01K KC2024 02 06.93063008 07 08.50 +26 05 31.2                oEC079K88
     K24C01K KC2024 02 06.93389808 07 09.38 +26 06 35.0          20.3 RoEC079K88
     K24C01K KC2024 02 06.93716108 07 10.20 +26 07 39.3          20.2 RoEC079K88
     K24C01K KB2024 02 06.93721 08 07 05.58 +26 08 01.6                XEC079M45
     K24C01K KB2024 02 06.94089 08 07 06.58 +26 09 12.0                XEC079M45
     K24C01K KB2024 02 06.94457 08 07 07.53 +26 10 24.3          20.2 GXEC079M45
     K24C01K KB2024 02 06.94873208 07 29.46 +26 12 33.2          19.6 GXEC079958
     K24C01K KB2024 02 06.95449708 07 30.93 +26 14 30.8          19.2 GXEC079958
     K24C01K KB2024 02 06.96019808 07 32.40 +26 16 27.0          19.2 GXEC079958
     K24C01K KB2024 02 06.96841508 07 34.43 +26 19 14.8          19.8 GXEC079958
     K24C01K KB2024 02 06.97418508 07 36.08 +26 21 14.3          19.9 GXEC079958
     K24C01K KB2024 02 06.97991408 07 37.53 +26 23 12.1          19.3 GXEC079958
     K24C01K KC2024 02 06.99565908 07 27.45 +26 27 02.1                oEC079K88
     K24C01K KC2024 02 07.00039108 07 28.99 +26 28 39.1                oEC079K88
     K24C01K KC2024 02 07.00418108 07 30.24 +26 29 57.1          20.2 RoEC079K88
     K24C01K KC2024 02 07.00465608 07 30.38 +26 30 05.8          20.2 RoEC079K88
     K24C01K KC2024 02 07.18282208 10 07.68 +27 46 47.8          19.8 GVEC079H21
     K24C01K KC2024 02 07.18832408 10 10.03 +27 49 26.1          19.6 GVEC079H21
     K24C01K KC2024 02 07.80662008 26 34.279+37 16 44.32         18.0 GXEC079O75
     K24C01K KC2024 02 07.80847208 26 40.143+37 19 54.76         18.7 GXEC079O75
     K24C01K KC2024 02 07.81032408 26 46.194+37 23 08.24         18.5 GXEC079O75
     K24C01K KB2024 02 07.87047308 34 01.87 +39 26 38.3          18.3 GXEC079958
     K24C01K KB2024 02 07.87158808 34 06.76 +39 29 09.5          18.7 GXEC079958
     K24C01K KB2024 02 07.87266008 34 11.55 +39 31 35.3          18.4 GXEC079958
     K24C01K KB2024 02 07.87370408 34 16.11 +39 33 55.1          18.5 GXEC079958
     K24C01K KB2024 02 07.88182 08 34 21.06 +39 48 07.7          18.9 GVEC079L65
     K24C01K KB2024 02 07.89541 08 35 25.44 +40 19 56.5          18.5 GVEC079L65
     K24C01K 2C2024 02 07.90044908 37 17.697+40 43 24.88         17.4 GVEC079J04
     K24C01K 2C2024 02 07.90059208 37 18.387+40 43 45.70         17.7 GVEC079J04
Observer details:
958 Observatoire de Dax.  Observer P. Dupouy.  0.50-m f/4.5 Reflector + CMO.
H21 Astronomical Research Observatory, Westfield.  Observer R. Holmes.
    Measurers T. Linder, R. Holmes, L. Horn.  0.76-m f/3.0 astrograph + CCD.
J04 ESA Optical Ground Station, Tenerife.  Observers P. Ruiz, M. Micheli, F.
    Ocana, L. Conversi.  Measurers M. Micheli, R. Kresken, F. Ocana.
    1.0-m f/4.4 reflector + CCD.
K88 GINOP-KHK, Piszkesteto.  Observer K. Sarneczky.  0.60-m Schmidt + CCD.
L65 Bredenkamp Observatory, Bremen.  Observer H. Duin.  0.23-m f/6.3 reflector
    + CMO.
M45 Starhopper Observatory, Sfantu Gheorghe.  Observer F. Ursache.  0.41-m
    f/7.5 reflector + CMO.
O75 ISON-Hureltogoot Observatory.  Observer L. Elenin.  0.40-m f/2.4 reflector
    + CCD.
Orbital elements:
2024 CK1                                                 Earth MOID = 0.0014 AU
Epoch 2023 Sept. 13.0 TT = JDT 2460200.5                Bell                    
M 285.78721              (2000.0)            P               Q                  
n   0.40043250     Peri.   56.47702     -0.98411168     +0.17711656             
a   1.8229853      Node   133.72140     -0.16806206     -0.90670584             
e   0.5292494      Incl.    0.98362     -0.05726552     -0.38277180             
P   2.46           H   29.36          G   0.15           U   7                  
Residuals in seconds of arc
240206 K88  0.4+  0.3+    240206 M45  2.5+  1.3+    240207 O75  0.1+  0.7+
240206 K88  0.7+  0.7-    240206 958  0.8+  0.5-    240207 O75  0.1+  0.8-
240206 K88  1.1+  0.2-    240206 958  0.7+  0.2+    240207 O75  1.7+  0.2-
240206 K88  1.1+  0.8+    240206 958  0.8+  0.2+    240207 958  1.0+  0.2-
240206 K88  1.0+  0.2+    240206 958  0.6-  0.4-    240207 958  0.4+  0.7+
240206 K88  0.2-  0.3-    240206 958  1.1+  0.2+    240207 958  0.7+  1.6+
240206 K88  0.3+  0.4+    240206 958  0.1+  0.7-    240207 958  0.5-  0.2-
240206 K88  0.1+  0.0     240206 K88  1.1+  0.2-    240207 L65  0.5-  0.1-
240206 K88  0.2+  0.9-    240207 K88  0.6+  0.0     240207 L65 (1.1+  1.8+)
240206 K88  0.5+  0.3-    240207 K88  0.2+  0.1+    240207 J04  0.3+  0.4+
240206 K88  0.1-  0.8+    240207 K88  0.1-  1.0-    240207 J04  0.1-  0.4-
240206 M45  2.2+  0.6+    240207 H21  0.1-  0.0
240206 M45  2.8+  0.1+    240207 H21  0.0   0.0
Ephemeris:
2024 CK1                 a,e,i = 1.82, 0.53, 1                   q = 0.8582
Date    TT    R. A. (2000) Decl.     Delta      r    Elong.  Phase     V
2024 01 09    07 58 11.4 +18 30 01   0.2261  1.2065   169.7     8.3    27.1
...
2024 01 24    07 57 28.4 +18 46 14   0.1082  1.0920   174.2     5.2    25.2
...
2024 02 01    07 57 37.0 +19 37 44   0.05122 1.0350   166.2    13.1    23.7
...
2024 02 07    08 07 53.8 +26 34 29   0.0097480.9953   160.1    19.7    20.3
2024 02 08    08 47 00.3 +45 21 03   0.0031260.9890   149.0    30.9    18.1
2024 02 09    19 30 55.0 -00 07 45   0.0044480.9827    32.4   147.5    25.5
...
2024 02 15    19 54 40.3 -17 30 02   0.04562 0.9477    28.4   150.3    31.0
...
2024 02 23    19 58 52.0 -18 25 55   0.1019  0.9081    35.5   140.8    31.1
...
2024 03 09    20 12 43.7 -18 19 38   0.2129  0.8628    47.3   122.3    30.7
M. P. C. Staff               (C) Copyright 2024 MPC           M.P.E.C. 2024-C79
    
    
More information about the Iaude
mailing list